Weather WX

World > North America > United States > Ohio

Homer, Ohio Regional Weather

Lat: 40.25N, Lon: 82.52W
Wx Zone: OHZ056
Warning FLW WEATHER ALERT - FLASH FLOOD WATCH (More Info. Click Here) Warning
Feedback

Homer, OH Regional Weather

Expires:201906181900;;690784
ASUS41 KCLE 181812
RWRCLE
OHIO REGIONAL WEATHER ROUNDUP
NATIONAL WEATHER SERVICE WILMINGTON, OH
200 PM EDT TUE JUN 18 2019

NOTE: "FAIR" INDICATES FEW OR NO CLOUDS BELOW 12,000 FEET WITH NO
SIGNIFICANT WEATHER AND/OR OBSTRUCTIONS TO VISIBILITY.


OHZ036-037-039>041-045>050-054>059-063>069-073>076-082>088-181900-
  CENTRAL AND SOUTHEAST OHIO
  
CITY           SKY/WX    TMP DP  RH WIND       PRES   REMARKS
COLUMBUS       CLOUDY    75  66  73 SW5       29.93F                  
OSU AIRPORT    CLOUDY    76  67  73 SW6       29.93F                  
BOLTON FIELD   CLOUDY    73  68  83 S6        29.95F                  
RICKENBACK AFB RAIN      71  69  95 S8        29.94S                  
NEWARK         PTSUNNY   77  67  71 CALM      29.93F                  
MARION         PTSUNNY   75  66  73 VRB3      29.94F                  
LANCASTER      LGT RAIN  72  69  90 CALM      29.94F                  
ZANESVILLE     CLOUDY    72  67  84 S6        29.95F                  
NEW PHILLY     CLOUDY    72  67  84 S7        29.95F                  
$$
  

SKY/WX - Weather  TMP - Temperature  DP - Dew Point  RH - Relative Humidity
WIND - Wind Direction/Speed PRES - Barometric Pressure VSB - Visibility
WCI - Wind Chill Index E13G22 Wind - East Wind 13 mph/Gusts of 22 mph